Wind_Speed
8 10 12 14 15 17 19 20 22 22 21 19 17 15 14 11 7 7 9 14 14 13 12 10 10 11 7 12 13 6 17 13 14 12 13 12 11 14 14 11 9 10 10 11 14
7 8 10 12 14 15 17 19 20 21 22 22 22 21 19 16 11 11 10 16 16 14 9 8 7 5 10 17 13 5 11 14 9 12 12 14 10 11 16 17 13 10 11 13 11
7 8 9 10 11 13 14 15 17 19 21 21 21 20 19 18 14 14 18 19 18 15 8 5 4 7 11 17 10 7 17 18 14 11 9 14 11 11 14 19 19 13 12 11 9
8 8 9 10 10 11 12 13 13 15 18 20 20 19 18 16 12 20 20 20 20 16 10 5 0 6 9 16 0 10 18 21 13 9 8 10 14 13 14 18 20 17 14 12 11
10 10 10 10 10 11 11 11 12 12 14 17 19 20 20 19 14 19 22 21 23 17 12 6 5 3 11 12 9 14 22 19 14 11 7 12 15 14 12 16 18 19 18 15 13
12 11 11 11 11 11 11 11 11 11 12 14 17 19 21 20 18 19 22 23 24 19 14 9 8 3 8 15 9 24 23 22 18 14 10 13 17 9 11 12 15 17 18 18 18
14 13 12 12 11 11 11 11 11 11 11 13 15 19 21 17 22 21 24 25 25 22 15 12 11 3 3 12 8 25 27 24 19 16 5 10 16 12 10 13 12 14 16 16 17
17 15 14 13 12 11 12 12 12 12 12 13 14 17 18 24 27 26 25 25 26 23 17 16 16 8 5 5 9 22 24 25 22 19 10 1 9 15 11 11 13 14 14 15 14
20 18 16 15 13 12 12 12 13 13 13 14 14 14 18 26 24 23 24 25 26 26 22 21 18 14 10 7 13 23 25 23 27 21 12 6 7 10 12 11 14 15 14 12 12
23 21 18 16 15 13 13 12 14 15 16 15 14 14 15 20 20 20 24 27 28 26 24 24 21 20 17 11 11 12 26 22 23 22 21 16 9 6 12 11 14 16 14 13 12
25 24 21 19 16 13 13 14 16 19 20 20 17 16 20 19 21 22 22 26 30 30 29 28 24 29 24 15 13 11 11 14 16 18 29 21 16 6 6 10 11 17 18 15 13
27 26 24 21 18 15 14 17 19 19 22 21 19 23 24 25 27 27 27 26 30 32 29 26 29 27 23 19 17 14 17 21 24 18 30 24 19 11 5 5 5 6 9 15 15
30 27 26 23 21 17 17 18 19 20 20 22 23 24 24 30 30 32 33 29 30 30 29 27 22 21 21 21 17 18 22 21 27 16 28 22 22 22 17 12 10 9 6 9 11
31 30 27 25 24 21 20 20 22 19 14 18 26 26 30 29 27 30 33 30 30 30 29 28 29 18 21 22 19 19 6 16 15 28 27 24 11 28 24 20 20 17 16 10 8
30 31 30 28 26 24 22 21 20 17 4 7 23 22 32 31 19 31 31 33 29 29 29 25 21 21 22 17 12 11 8 4 16 31 25 21 10 13 26 27 25 21 15 18 12
31 30 30 30 27 27 24 23 20 11 10 6 14 29 36 33 14 25 29 27 27 25 28 28 17 20 25 20 14 15 11 1 19 23 10 15 29 12 21 24 18 20 17 15 17
33 30 30 30 27 29 27 27 21 13 12 9 13 30 37 35 22 28 32 32 27 26 29 30 28 25 23 19 15 12 12 2 1 0 7 6 19 24 24 21 20 13 14 9 16
37 32 31 26 30 30 34 33 20 18 30 8 11 23 40 37 31 29 33 35 32 26 23 23 19 30 25 22 12 9 15 7 5 4 5 3 6 21 25 17 14 14 8 10 17
33 34 30 25 29 32 38 42 39 25 25 27 5 27 41 45 29 29 40 38 35 33 21 23 22 26 30 21 13 15 15 12 8 1 3 7 14 26 11 5 12 12 15 14 14
30 33 24 29 32 35 43 50 35 31 19 24 23 21 38 44 38 39 32 40 37 35 31 8 19 28 27 21 19 17 15 10 6 2 4 6 13 18 7 6 12 16 15 10 9
29 25 28 33 32 39 54 56 44 33 29 15 21 16 21 25 43 30 34 24 37 34 29 31 17 21 30 28 25 21 24 16 9 5 7 1 6 12 14 13 14 15 15 11 6
25 22 29 33 35 44 54 51 36 55 41 35 16 20 17 16 29 31 24 45 23 33 39 36 21 25 23 21 23 23 23 24 18 8 6 5 3 8 12 15 18 17 16 10 6
21 23 24 29 40 44 46 49 47 36 53 41 36 26 20 13 10 22 28 24 37 26 37 35 38 23 25 25 25 20 23 23 28 25 21 8 4 13 17 20 18 18 17 8 3
16 18 30 27 32 27 39 43 46 52 38 52 32 32 29 24 15 12 23 18 26 35 31 33 36 41 32 24 21 20 19 22 29 29 26 20 13 21 21 21 21 20 13 9 11
15 21 24 24 27 28 25 30 43 48 50 40 34 48 37 34 28 23 18 10 13 28 36 42 42 43 36 40 33 20 19 20 31 37 31 32 25 21 24 22 26 24 16 12 8
17 23 26 19 12 18 30 25 28 41 47 48 50 40 38 44 43 32 25 17 13 10 14 42 37 43 41 35 42 35 27 24 21 38 36 34 28 18 24 28 29 25 18 18 13
16 21 23 22 11 16 22 25 22 29 35 41 36 38 45 47 41 38 33 27 19 11 10 11 45 46 37 38 38 33 37 29 20 19 19 26 30 28 28 28 28 29 22 20 15
Wind_Direction
232 228 231 234 234 236 237 238 239 241 240 236 233 235 239 240 232 189 168 172 188 185 192 186 187 209 256 320 331 351 144 173 169 120 74 60 47 62 58 59 98 120 128 124 142
253 242 235 235 236 236 237 239 240 238 237 237 237 237 239 242 237 195 188 181 194 196 193 198 240 298 342 353 341 322 203 201 157 107 73 84 57 60 67 66 87 106 128 128 128
262 258 249 241 240 240 240 238 239 241 237 235 233 232 233 236 235 178 197 189 196 198 198 200 305 337 353 14 347 177 170 190 137 101 62 70 72 69 74 82 84 81 101 110 114
259 259 257 251 245 244 243 243 241 239 237 235 231 226 224 219 210 196 189 194 199 198 198 206 201 319 6 21 17 175 158 165 133 117 75 65 65 87 87 86 89 97 92 96 104
264 258 256 256 250 246 244 242 243 239 236 231 228 222 217 212 186 190 192 194 198 199 198 203 237 331 27 50 168 174 147 155 134 130 88 64 72 74 97 94 93 93 89 88 92
269 264 257 254 252 247 244 240 238 238 236 231 224 218 214 205 187 186 192 195 193 197 201 203 227 329 74 53 169 174 157 154 153 141 99 65 66 48 108 107 101 98 96 92 87
270 266 262 256 250 249 244 240 234 236 235 231 223 219 212 186 193 185 190 193 191 197 199 210 216 230 109 67 81 178 156 162 164 159 145 78 82 64 90 118 113 106 104 99 94
265 265 263 259 254 246 246 239 236 234 233 231 225 221 203 200 195 188 188 192 190 199 202 218 218 229 211 62 114 165 165 165 184 184 191 97 112 88 84 103 120 116 110 108 108
259 260 261 259 254 247 244 240 236 234 233 230 225 219 201 206 196 189 189 190 194 202 208 220 227 230 233 197 138 174 176 182 186 197 224 193 153 124 106 105 102 106 116 118 118
255 254 254 256 253 247 244 239 238 233 229 225 218 208 205 214 192 192 191 190 191 203 210 219 225 236 224 206 211 166 189 200 215 218 222 226 238 171 125 116 104 94 101 114 124
249 250 249 249 249 243 241 235 237 234 228 219 200 188 188 195 190 185 189 193 191 199 208 220 231 228 209 224 231 245 260 267 261 262 227 228 234 261 152 144 127 103 95 94 111
248 245 245 244 241 237 233 233 239 239 235 229 221 192 179 180 192 188 191 197 198 199 204 215 223 211 219 229 233 250 272 272 284 261 226 223 226 243 226 107 108 89 96 119 109
249 244 240 239 236 227 226 228 235 251 261 223 224 200 190 191 194 189 193 198 201 202 204 211 214 210 218 217 231 246 264 288 289 232 209 218 218 216 209 208 208 209 168 152 132
252 245 236 234 232 223 221 224 230 244 275 252 225 206 199 198 205 194 192 196 201 205 205 221 213 190 207 216 230 266 285 281 246 208 197 210 224 225 219 220 226 224 221 204 165
252 247 238 226 229 221 215 218 225 234 300 229 208 203 204 201 206 197 192 192 206 201 204 213 210 210 215 203 225 271 315 308 209 204 199 212 219 257 224 231 243 234 232 223 216
250 246 239 229 219 220 209 205 210 197 244 228 200 195 195 204 177 195 181 199 206 208 213 215 203 205 212 224 249 291 267 157 174 170 207 243 209 235 231 268 277 249 232 232 235
251 244 240 230 218 212 202 193 183 209 228 219 193 196 200 196 191 194 181 192 198 200 217 220 214 207 214 230 229 288 223 180 110 284 224 229 216 251 287 271 267 275 244 228 233
254 244 239 224 223 207 197 191 212 224 212 192 193 206 201 197 190 190 188 194 200 202 209 211 225 208 208 223 237 266 227 195 175 193 263 226 262 303 301 264 264 263 228 238 242
254 247 234 223 219 210 199 198 212 209 217 218 292 204 198 199 193 194 203 202 196 196 199 208 223 203 210 219 232 249 231 229 233 178 294 289 303 309 295 277 207 203 216 230 246
252 247 230 220 220 210 208 210 212 206 217 226 219 203 201 200 200 197 200 214 211 205 204 211 225 205 208 217 231 245 234 216 208 140 274 281 301 274 266 214 180 187 204 230 253
254 239 224 219 219 211 216 216 212 210 202 210 210 211 200 202 205 207 208 210 210 206 207 214 213 220 217 221 221 242 236 220 220 232 171 220 266 279 252 239 222 196 202 212 223
250 237 220 218 214 219 220 215 207 216 216 222 206 200 180 172 196 212 217 218 206 206 209 211 228 236 224 218 223 237 237 234 229 214 215 214 284 306 190 184 195 194 215 225 218
250 230 227 217 217 222 223 226 219 214 216 221 226 226 227 228 200 206 220 222 218 217 212 212 222 237 246 236 234 245 238 242 232 238 230 218 245 179 183 189 197 211 215 220 214
241 231 208 214 214 220 227 230 225 219 218 219 223 224 231 236 221 194 205 211 220 223 224 214 225 224 228 234 227 235 237 245 245 237 236 233 233 194 205 218 223 224 216 192 173
225 223 209 209 226 223 224 227 230 225 226 217 222 228 227 234 230 222 198 194 187 218 223 220 224 228 237 237 233 223 238 248 245 246 239 246 248 231 225 235 231 220 218 224 209
232 227 219 211 188 211 213 211 222 227 228 224 228 229 231 233 230 228 234 234 197 179 218 229 222 227 233 235 239 241 246 256 259 236 243 248 249 255 225 223 225 227 219 221 208
240 239 236 216 200 173 181 202 207 213 224 222 226 227 229 232 231 231 234 227 231 233 231 264 225 225 230 233 234 238 233 240 251 255 251 251 255 258 222 224 233 234 226 216 203
Height
3164 3164 3164 3165 3166 3166 3167 3169 3170 3171 3173 3175 3177 3178 3179 3180 3181 3182 3183 3185 3183 3184 3185 3186 3187 3187 3188 3188 3187 3189 3189 3187 3185 3183 3182 3181 3180 3178 3175 3174 3172 3173 3175 3175 3175
3162 3162 3162 3162 3163 3163 3164 3165 3166 3167 3169 3171 3174 3175 3176 3178 3179 3180 3183 3183 3182 3183 3185 3187 3186 3187 3187 3185 3183 3184 3187 3187 3187 3184 3183 3182 3183 3181 3179 3176 3175 3175 3176 3177 3178
3160 3160 3160 3160 3160 3160 3161 3161 3162 3163 3165 3167 3169 3172 3173 3175 3177 3179 3179 3181 3181 3183 3186 3187 3187 3187 3186 3184 3183 3183 3183 3185 3187 3187 3187 3184 3185 3184 3182 3179 3178 3180 3180 3180 3181
3158 3158 3157 3158 3158 3158 3158 3158 3159 3160 3161 3163 3165 3168 3170 3172 3176 3176 3178 3180 3181 3183 3186 3187 3188 3188 3187 3184 3182 3183 3183 3186 3188 3189 3189 3188 3185 3185 3184 3183 3182 3183 3183 3183 3184
3156 3156 3155 3155 3155 3155 3156 3156 3156 3157 3158 3159 3161 3164 3167 3169 3172 3174 3176 3178 3180 3183 3185 3188 3188 3187 3188 3185 3183 3183 3185 3188 3189 3191 3190 3189 3187 3187 3187 3187 3186 3186 3187 3187 3188
3154 3154 3153 3153 3153 3153 3153 3154 3154 3154 3155 3156 3158 3160 3163 3166 3169 3171 3173 3177 3180 3182 3185 3187 3186 3186 3187 3187 3185 3184 3187 3189 3191 3192 3193 3193 3190 3191 3190 3190 3190 3191 3191 3191 3192
3151 3151 3151 3150 3150 3150 3150 3151 3152 3152 3152 3153 3154 3156 3159 3164 3165 3168 3171 3174 3177 3181 3184 3185 3185 3187 3188 3188 3187 3188 3190 3194 3195 3194 3194 3195 3193 3192 3192 3192 3193 3194 3194 3194 3195
3147 3147 3148 3148 3148 3148 3148 3148 3149 3149 3150 3150 3152 3153 3156 3157 3160 3164 3168 3173 3177 3179 3183 3183 3184 3186 3187 3189 3190 3191 3193 3193 3194 3194 3195 3196 3195 3194 3195 3195 3194 3195 3196 3197 3198
3142 3143 3144 3144 3145 3145 3145 3145 3146 3146 3147 3148 3149 3151 3153 3154 3159 3163 3167 3170 3174 3178 3180 3181 3183 3185 3187 3187 3192 3192 3192 3192 3194 3194 3195 3195 3195 3196 3197 3197 3196 3196 3198 3199 3199
3137 3138 3139 3140 3141 3142 3142 3142 3142 3142 3142 3144 3146 3150 3150 3153 3158 3161 3164 3167 3171 3175 3178 3180 3182 3183 3185 3187 3189 3192 3193 3193 3192 3194 3193 3195 3196 3197 3197 3199 3199 3198 3197 3199 3200
3131 3132 3134 3135 3137 3139 3140 3139 3140 3140 3138 3140 3140 3143 3144 3148 3153 3158 3161 3164 3167 3170 3174 3177 3179 3178 3183 3186 3188 3188 3190 3191 3192 3194 3193 3194 3196 3196 3196 3198 3200 3199 3199 3199 3200
3125 3126 3129 3131 3133 3135 3136 3134 3134 3135 3136 3137 3139 3140 3140 3143 3147 3152 3158 3162 3164 3167 3171 3175 3173 3178 3183 3184 3186 3187 3186 3184 3185 3186 3192 3193 3196 3197 3196 3198 3200 3201 3201 3200 3201
3117 3120 3123 3126 3128 3131 3132 3132 3132 3132 3133 3134 3135 3138 3140 3141 3142 3147 3153 3157 3161 3165 3168 3170 3173 3175 3179 3182 3183 3184 3184 3181 3181 3184 3188 3192 3196 3194 3196 3197 3198 3199 3201 3202 3203
3110 3112 3116 3120 3125 3126 3127 3130 3131 3133 3133 3127 3128 3133 3135 3137 3140 3145 3148 3155 3157 3161 3166 3166 3171 3172 3175 3178 3181 3181 3181 3178 3175 3180 3183 3189 3191 3191 3192 3193 3194 3197 3199 3201 3202
3102 3105 3109 3113 3117 3120 3124 3126 3129 3134 3133 3121 3121 3127 3130 3134 3138 3139 3145 3150 3154 3157 3162 3163 3167 3170 3172 3175 3179 3178 3178 3174 3173 3178 3182 3186 3190 3185 3188 3188 3188 3191 3194 3198 3201
3093 3097 3101 3105 3111 3114 3119 3122 3127 3133 3123 3115 3115 3118 3124 3129 3134 3139 3141 3149 3153 3156 3157 3159 3163 3166 3169 3172 3175 3176 3177 3176 3176 3179 3182 3180 3183 3180 3181 3181 3183 3188 3192 3194 3196
3084 3089 3093 3098 3105 3108 3114 3118 3124 3118 3115 3112 3112 3114 3119 3123 3130 3134 3137 3141 3146 3152 3152 3155 3157 3162 3165 3167 3170 3172 3174 3175 3178 3179 3178 3178 3182 3178 3175 3177 3179 3183 3188 3190 3192
3073 3080 3084 3093 3094 3100 3106 3112 3108 3102 3106 3106 3109 3112 3114 3120 3126 3129 3133 3136 3141 3145 3148 3153 3155 3157 3160 3164 3167 3169 3171 3172 3177 3180 3175 3176 3174 3173 3171 3169 3174 3179 3185 3188 3190
3064 3069 3078 3085 3086 3092 3098 3097 3089 3094 3101 3102 3105 3107 3111 3115 3121 3124 3127 3130 3135 3139 3146 3149 3150 3154 3158 3162 3165 3166 3167 3170 3170 3172 3173 3172 3171 3169 3167 3165 3169 3175 3181 3185 3186
3054 3059 3073 3073 3075 3082 3085 3078 3082 3091 3097 3098 3102 3103 3105 3110 3116 3119 3123 3126 3130 3136 3142 3147 3150 3151 3156 3159 3160 3162 3165 3167 3167 3171 3174 3169 3169 3167 3166 3167 3170 3174 3178 3182 3184
3045 3051 3060 3061 3066 3070 3063 3065 3076 3086 3091 3094 3096 3099 3101 3104 3110 3113 3117 3122 3127 3133 3140 3144 3147 3148 3151 3151 3155 3159 3159 3161 3164 3166 3168 3172 3168 3165 3165 3166 3168 3172 3176 3180 3183
3037 3044 3048 3052 3057 3054 3055 3061 3072 3080 3086 3088 3092 3094 3097 3099 3103 3109 3113 3118 3123 3129 3131 3138 3144 3144 3146 3149 3151 3152 3154 3157 3159 3164 3165 3165 3166 3163 3163 3165 3169 3171 3174 3178 3181
3030 3037 3039 3041 3043 3046 3052 3057 3066 3074 3079 3083 3087 3091 3093 3096 3101 3103 3109 3115 3121 3123 3126 3134 3136 3141 3142 3146 3146 3148 3150 3153 3156 3158 3160 3163 3165 3163 3164 3167 3170 3172 3174 3177 3178
3026 3030 3033 3033 3037 3042 3048 3051 3057 3066 3070 3077 3080 3085 3089 3093 3097 3099 3103 3110 3113 3118 3125 3129 3131 3132 3132 3137 3143 3146 3148 3150 3152 3153 3155 3157 3160 3161 3163 3164 3166 3168 3171 3174 3176
3020 3022 3023 3027 3032 3034 3040 3043 3049 3055 3061 3071 3073 3078 3084 3088 3093 3095 3099 3103 3107 3110 3117 3121 3122 3127 3130 3134 3138 3141 3143 3145 3145 3149 3150 3153 3154 3157 3158 3160 3162 3166 3169 3172 3173
3015 3016 3018 3023 3025 3028 3033 3038 3042 3048 3051 3057 3063 3072 3078 3079 3085 3092 3096 3100 3101 3105 3108 3113 3116 3121 3124 3128 3130 3135 3138 3140 3140 3143 3145 3147 3149 3153 3154 3159 3161 3163 3166 3167 3168
3010 3011 3013 3018 3022 3023 3024 3031 3035 3038 3042 3050 3058 3064 3068 3073 3081 3088 3090 3093 3096 3098 3102 3105 3108 3113 3115 3122 3126 3128 3128 3134 3138 3140 3142 3142 3147 3148 3149 3153 3156 3159 3162 3164 3166